Temperature
17 16 16 16 16 16 16 16 15 15 15 16 16 16 15 15 15 15 15 15 15 15 15 15 15 15 15 15 14 14 14 14 14 14 14 14 14 14
16 16 16 16 16 16 16 15 15 15 15 15 15 15 15 15 15 15 15 15 15 15 15 14 15 15 15 14 14 14 14 14 14 14 14 14 14 14
16 16 16 16 16 16 15 15 15 15 15 15 15 15 15 15 15 15 15 15 15 14 14 14 14 14 14 14 14 14 14 14 14 14 14 14 13 13
16 16 16 15 15 15 15 15 15 15 15 15 15 15 15 15 15 15 14 14 14 14 14 14 14 14 14 14 14 14 14 14 14 14 14 13 13 13
16 15 15 15 15 15 15 15 15 15 15 15 14 14 14 14 14 14 14 14 14 14 14 14 14 14 13 14 14 14 14 14 14 13 13 13 13 13
15 15 15 15 15 15 15 15 15 15 15 14 14 14 14 14 14 14 14 14 14 14 14 14 14 13 13 13 13 13 13 13 13 13 13 13 13 13
15 15 15 15 15 15 15 15 15 14 14 14 14 14 14 14 14 14 14 14 14 14 14 14 13 13 13 13 13 13 13 13 13 13 13 13 13 13
15 15 15 15 15 15 15 14 14 14 14 14 14 14 14 14 14 13 13 13 13 13 13 13 13 13 13 13 13 13 13 13 13 13 12 12 12 12
15 15 15 15 15 15 14 14 14 14 14 14 14 14 14 14 13 13 13 13 13 13 13 13 13 13 13 13 13 13 13 13 13 12 12 12 12 12
15 15 15 15 15 15 14 14 14 14 14 14 14 14 13 13 13 13 13 13 13 13 12 12 13 13 13 13 13 13 13 13 12 12 12 12 12 12
15 15 15 15 15 14 14 14 14 14 14 14 13 13 13 13 13 12 12 12 12 13 12 12 12 12 12 13 12 12 12 12 12 12 12 12 12 11
15 15 14 14 14 14 14 14 14 14 14 14 13 13 13 13 12 12 12 12 12 12 12 12 12 12 12 12 12 12 12 12 12 12 12 11 11 11
14 14 14 14 14 14 14 14 14 14 14 13 13 13 13 13 12 12 12 12 12 12 12 12 12 11 11 11 12 12 12 12 12 11 11 11 11 11
14 14 14 14 14 14 14 13 13 13 13 13 13 13 13 13 12 12 12 12 12 12 12 11 11 11 11 11 11 11 11 11 11 11 11 11 11 11
14 14 13 13 13 13 13 13 13 13 13 13 12 12 12 12 12 12 12 12 12 12 11 11 11 11 11 11 10 10 10 11 11 11 10 11 10 10
14 13 13 13 13 13 13 13 13 12 12 12 12 12 12 12 12 12 11 11 11 11 11 11 11 10 10 10 10 10 10 10 10 10 10 10 10 10
13 13 13 13 13 13 12 12 12 12 12 12 12 12 12 11 11 11 11 11 11 11 11 11 10 10 10 10 10 10 10 10 10 10 10 10 10 10
13 13 13 13 12 12 12 12 12 12 11 11 11 11 11 11 11 11 11 11 10 10 10 10 10 10 10 10 10 10 10 10 10 9 9 9 9 9
12 12 12 12 12 12 11 11 11 11 11 11 11 11 10 10 10 10 10 10 10 10 10 10 9 9 9 9 9 10 9 9 9 9 9 9 9 9
12 12 12 11 11 11 11 11 11 11 11 10 10 10 10 10 10 10 9 9 9 9 9 9 9 9 9 8 9 9 9 9 9 9 9 9 9 9
11 11 11 11 11 11 10 10 10 10 10 10 10 9 9 9 9 9 9 9 9 9 9 9 9 9 8 8 8 8 9 9 9 8 8 8 8 8
11 11 11 11 10 10 10 10 10 10 10 9 9 9 9 9 9 8 8 8 8 8 8 8 8 8 8 8 8 8 8 8 8 8 8 8 8 8
10 10 10 10 10 10 10 9 9 9 9 9 8 8 8 8 8 8 8 8 8 8 7 7 7 7 7 7 7 7 8 8 8 8 8 8 8 8
Wind_Speed
2 2 2 1 2 2 2 3 3 2 2 2 2 2 3 3 4 4 4 4 4 4 5 5 5 4 4 4 3 3 3 4 5 6 6 6 6 6
2 2 2 1 1 1 2 2 2 3 2 2 2 2 2 2 3 3 4 4 4 4 4 4 4 4 4 4 4 4 4 4 4 5 5 6 6 6
2 2 2 2 2 2 2 2 2 2 3 3 2 2 1 2 2 2 3 3 3 4 4 5 5 5 5 5 5 5 5 5 5 6 6 5 5 6
2 2 2 2 2 2 2 2 3 3 3 3 2 1 2 2 2 2 2 2 2 3 5 5 6 6 6 6 6 6 6 7 7 7 7 7 6 6
3 3 3 3 3 2 3 3 3 3 3 3 2 1 1 1 1 1 2 2 2 3 3 4 6 7 7 8 8 8 8 8 8 8 8 8 8 7
3 3 4 4 4 4 3 3 3 3 2 3 2 2 1 1 1 1 2 2 2 2 2 4 5 6 7 8 9 9 9 9 9 9 9 9 9 9
2 3 4 5 6 5 3 3 3 3 2 2 2 2 2 1 2 2 2 3 3 2 2 3 3 3 5 7 8 9 10 10 10 10 10 10 10 10
3 3 3 4 5 5 5 6 5 4 4 3 3 4 4 3 3 2 2 2 3 2 2 3 2 3 4 5 7 9 10 10 10 11 11 11 10 10
3 3 3 3 3 3 3 4 4 6 7 5 5 5 5 5 4 4 4 4 4 2 2 3 2 4 4 6 8 8 9 10 11 11 12 11 11 10
4 4 4 4 3 3 2 3 3 4 5 5 6 6 6 5 5 5 4 3 3 2 3 3 3 4 4 5 6 7 8 9 11 11 12 12 11 11
4 4 4 4 5 3 3 3 4 4 4 6 6 6 6 6 5 3 2 2 3 3 3 3 3 3 3 4 4 5 6 7 8 9 11 11 12 10
3 3 4 4 4 3 3 4 5 5 4 3 3 4 4 5 6 6 5 4 3 3 3 3 2 2 2 2 3 3 4 5 6 7 9 10 11 8
3 3 3 3 4 3 4 5 7 6 4 4 3 3 3 3 4 5 6 6 5 4 3 3 3 2 3 2 2 3 3 3 3 4 7 9 10 9
4 4 4 4 5 4 3 5 6 4 2 3 3 4 4 4 4 5 6 7 7 7 5 5 3 3 3 4 3 2 3 3 3 3 3 5 8 11
4 4 5 5 4 3 4 4 3 2 2 3 4 5 4 5 4 3 4 4 5 6 6 6 5 4 4 4 4 3 3 3 3 3 3 4 4 5
4 4 4 4 3 3 3 3 2 3 3 4 5 5 3 3 3 3 3 2 2 3 4 5 5 5 4 5 5 5 4 3 3 3 4 4 4 6
2 1 1 1 2 2 2 3 3 3 3 4 4 4 4 4 4 3 3 3 3 4 4 2 2 4 5 5 5 5 5 4 4 3 3 4 5 6
2 1 2 3 3 3 4 4 3 4 4 4 4 4 4 4 4 4 3 4 5 5 5 4 2 2 2 4 6 6 5 5 4 4 4 5 6 6
2 2 3 3 4 4 4 4 4 4 4 4 4 4 4 4 4 4 4 4 5 5 5 4 4 4 5 7 5 7 6 5 4 4 5 5 6 6
2 3 4 4 4 4 4 4 4 4 4 4 4 5 4 4 4 5 5 6 5 5 5 4 4 5 7 8 6 5 8 6 5 5 5 5 5 5
3 4 4 4 4 4 4 4 4 5 5 4 4 5 4 4 5 5 5 6 6 5 6 6 6 6 5 4 5 5 5 8 8 6 5 4 4 4
3 4 4 4 4 4 4 4 4 4 4 4 4 5 5 4 5 6 6 5 6 6 7 6 4 3 4 6 7 7 7 5 6 9 8 7 4 5
4 4 4 4 4 3 3 4 4 4 4 4 5 5 5 4 5 5 5 5 5 6 6 5 4 3 5 6 7 7 8 7 5 4 5 8 11 11
Wind_Direction
184 173 180 199 184 188 186 182 182 224 268 267 266 270 253 246 255 247 253 255 252 258 257 252 253 252 247 240 236 237 233 228 229 222 221 224 224 220
184 169 184 197 183 175 191 198 200 203 236 254 248 273 261 254 251 242 248 249 247 247 249 250 250 246 241 237 235 237 228 221 218 217 219 221 221 222
199 190 207 198 194 200 196 194 202 201 231 266 262 283 257 271 276 254 255 255 256 245 247 249 247 247 251 248 242 238 230 227 225 221 217 218 220 221
209 200 221 211 209 218 208 216 217 211 213 251 270 279 266 273 270 267 274 272 261 252 248 249 249 252 254 250 240 237 235 231 230 227 221 217 216 216
212 208 221 208 220 221 219 229 230 226 216 227 254 257 267 281 298 304 305 297 283 264 250 255 257 258 255 248 240 238 237 233 232 230 227 220 219 220
224 222 224 217 221 223 222 231 229 221 218 224 245 255 260 271 252 275 295 288 282 276 273 271 263 260 255 252 245 239 235 231 231 229 227 223 223 219
235 238 237 229 224 223 222 220 212 212 216 227 241 252 259 249 247 247 268 286 283 247 268 275 273 268 262 253 249 243 236 232 230 227 224 223 221 219
231 249 249 240 240 236 227 216 205 207 214 218 231 242 248 242 240 243 255 270 273 237 240 270 257 263 263 254 250 242 237 232 227 225 223 221 218 219
223 236 258 258 252 249 241 233 236 227 212 209 225 236 238 230 220 233 236 242 254 248 221 261 253 260 267 257 252 245 237 232 229 225 221 219 218 219
228 230 239 258 259 246 253 265 266 254 235 226 230 236 237 231 219 222 231 247 273 249 211 245 256 263 277 269 258 248 242 234 229 225 221 219 218 218
239 236 237 252 258 238 233 259 278 281 258 239 239 243 238 226 205 193 208 231 271 260 212 230 251 265 267 264 263 249 242 237 234 231 225 220 214 210
250 247 240 250 264 239 222 237 258 269 276 276 264 262 250 235 211 208 212 222 246 254 218 214 235 241 269 260 254 261 252 240 234 234 228 222 213 207
245 256 253 254 259 254 227 234 247 255 262 258 262 266 265 251 237 226 218 217 229 242 220 200 226 227 242 268 276 261 254 254 248 242 230 222 212 201
239 247 253 257 257 257 243 252 258 252 247 251 258 261 262 261 258 247 236 230 234 243 230 206 219 225 236 260 272 274 266 256 251 250 240 219 216 213
244 251 261 267 266 263 262 263 246 237 240 249 257 260 259 260 264 263 253 247 254 252 235 222 228 231 233 246 255 260 271 265 239 239 244 229 217 209
253 264 264 265 256 265 278 265 242 237 236 250 257 261 263 264 260 252 250 254 265 272 251 234 230 227 241 246 246 257 258 253 251 248 248 242 231 218
235 258 274 282 286 285 278 272 259 252 249 255 260 266 265 260 261 257 250 241 240 259 277 278 258 241 243 242 245 251 257 258 251 247 242 247 243 234
166 244 264 269 268 270 271 269 259 256 256 258 260 262 265 266 269 266 255 253 257 257 261 266 273 281 274 259 231 246 255 259 259 239 231 246 257 247
186 246 256 262 268 271 268 264 262 262 257 257 260 260 261 264 268 272 270 266 265 261 260 257 248 246 263 273 254 219 240 259 257 250 240 240 252 254
236 251 260 263 263 263 267 272 277 277 266 261 261 261 259 261 266 267 267 268 271 271 270 266 252 246 250 261 269 263 228 236 246 252 255 253 258 263
252 257 261 265 267 268 268 269 272 275 273 269 268 268 266 265 265 267 267 266 264 268 269 269 266 259 262 261 265 267 256 230 230 243 247 251 262 260
274 272 273 273 273 272 272 273 275 276 279 275 275 274 270 264 263 266 268 270 269 268 273 276 280 269 253 254 264 271 274 269 248 239 235 227 233 237
279 281 282 284 281 279 278 280 281 281 279 278 277 277 278 275 268 264 265 268 271 275 279 281 283 270 260 258 263 268 272 273 270 263 259 249 242 247
Height
1540 1540 1540 1540 1541 1541 1541 1541 1541 1540 1539 1539 1539 1539 1538 1538 1537 1537 1536 1536 1536 1535 1535 1535 1535 1534 1534 1534 1534 1535 1535 1535 1536 1536 1537 1537 1538 1539
1538 1538 1538 1539 1539 1539 1539 1539 1539 1539 1538 1537 1537 1537 1536 1536 1535 1535 1534 1534 1534 1533 1533 1533 1532 1532 1531 1532 1532 1532 1532 1532 1533 1533 1534 1534 1535 1535
1535 1536 1536 1536 1537 1537 1537 1537 1537 1537 1536 1535 1535 1535 1534 1534 1533 1533 1532 1531 1531 1531 1530 1530 1529 1529 1528 1528 1528 1529 1529 1529 1530 1530 1531 1531 1532 1532
1533 1534 1534 1534 1534 1535 1535 1535 1535 1534 1534 1533 1532 1532 1532 1531 1531 1530 1530 1529 1528 1528 1527 1527 1527 1526 1525 1525 1525 1525 1526 1526 1526 1527 1527 1528 1529 1529
1531 1531 1532 1532 1532 1532 1532 1532 1532 1531 1531 1531 1530 1529 1529 1529 1528 1528 1527 1526 1526 1525 1525 1524 1523 1523 1522 1522 1522 1522 1522 1522 1523 1523 1523 1524 1524 1525
1529 1529 1529 1529 1529 1529 1529 1529 1528 1528 1528 1528 1527 1526 1526 1525 1525 1524 1524 1523 1523 1522 1522 1521 1520 1520 1519 1519 1518 1518 1518 1518 1518 1519 1519 1520 1520 1521
1526 1526 1527 1527 1527 1527 1527 1526 1526 1526 1525 1525 1524 1523 1523 1522 1522 1521 1520 1519 1519 1519 1518 1518 1517 1516 1516 1515 1515 1514 1514 1514 1514 1515 1515 1515 1516 1517
1523 1523 1524 1524 1524 1524 1524 1524 1523 1523 1522 1522 1521 1520 1520 1519 1519 1518 1517 1516 1515 1515 1515 1514 1514 1513 1512 1512 1511 1511 1511 1510 1511 1511 1511 1512 1512 1513
1520 1520 1520 1521 1521 1521 1521 1520 1520 1520 1519 1519 1518 1517 1517 1516 1515 1514 1513 1513 1512 1511 1511 1510 1510 1509 1509 1508 1508 1507 1507 1507 1507 1507 1507 1508 1508 1509
1517 1517 1517 1517 1517 1517 1517 1517 1517 1516 1516 1515 1515 1514 1514 1513 1512 1511 1510 1509 1508 1508 1507 1506 1505 1505 1505 1504 1504 1503 1503 1503 1503 1503 1503 1503 1504 1504
1513 1514 1514 1514 1514 1514 1514 1513 1513 1513 1512 1512 1511 1510 1510 1509 1508 1507 1506 1505 1504 1503 1503 1502 1501 1500 1500 1500 1500 1499 1499 1498 1498 1498 1499 1499 1499 1499
1510 1510 1510 1511 1511 1510 1510 1510 1509 1509 1509 1508 1507 1507 1506 1505 1504 1504 1503 1502 1500 1499 1499 1498 1497 1497 1495 1495 1495 1495 1494 1494 1494 1494 1494 1494 1494 1494
1506 1506 1506 1507 1507 1506 1506 1505 1505 1505 1504 1504 1503 1503 1502 1501 1500 1500 1499 1498 1497 1496 1496 1495 1493 1493 1492 1491 1490 1490 1490 1489 1489 1488 1489 1489 1489 1489
1502 1503 1503 1503 1503 1502 1502 1502 1501 1501 1500 1500 1499 1498 1497 1497 1496 1496 1495 1494 1494 1493 1492 1491 1490 1489 1488 1487 1486 1486 1486 1485 1485 1484 1484 1483 1484 1484
1499 1499 1499 1499 1499 1498 1498 1498 1497 1496 1496 1495 1494 1494 1493 1493 1492 1491 1491 1490 1489 1489 1488 1487 1486 1485 1485 1483 1482 1482 1481 1481 1480 1480 1479 1478 1478 1478
1496 1496 1495 1495 1494 1494 1494 1493 1493 1492 1491 1490 1490 1489 1489 1488 1487 1486 1486 1485 1484 1483 1483 1483 1482 1481 1480 1480 1479 1478 1477 1476 1476 1475 1474 1474 1474 1473
1492 1492 1491 1490 1489 1489 1489 1489 1488 1487 1486 1485 1485 1484 1483 1483 1482 1482 1481 1480 1479 1478 1478 1478 1477 1477 1476 1475 1474 1473 1472 1472 1471 1470 1469 1469 1468 1468
1489 1488 1487 1486 1486 1485 1485 1484 1484 1483 1482 1481 1479 1479 1478 1477 1477 1476 1475 1475 1474 1473 1473 1472 1472 1471 1471 1470 1470 1468 1468 1467 1466 1466 1465 1464 1463 1463
1486 1485 1484 1483 1483 1482 1481 1480 1479 1478 1477 1476 1475 1474 1473 1472 1471 1470 1470 1469 1468 1467 1467 1467 1466 1465 1464 1463 1462 1463 1463 1462 1461 1460 1460 1459 1458 1458
1482 1482 1481 1480 1479 1478 1477 1476 1475 1474 1472 1471 1470 1469 1468 1467 1466 1465 1464 1463 1462 1462 1461 1461 1460 1460 1459 1458 1456 1456 1457 1456 1455 1455 1454 1453 1453 1453
1479 1478 1478 1477 1476 1474 1473 1471 1470 1469 1467 1466 1465 1464 1462 1461 1460 1459 1459 1458 1457 1456 1455 1454 1454 1455 1454 1453 1451 1450 1450 1450 1450 1450 1449 1448 1447 1446
1476 1475 1474 1473 1472 1470 1469 1467 1465 1464 1463 1461 1460 1459 1457 1456 1455 1454 1453 1452 1451 1450 1449 1449 1449 1448 1448 1447 1445 1444 1444 1444 1444 1444 1444 1443 1442 1441
1473 1472 1470 1469 1467 1466 1464 1463 1461 1459 1458 1456 1455 1453 1452 1451 1449 1448 1447 1446 1445 1444 1443 1442 1442 1442 1441 1440 1439 1439 1438 1438 1437 1437 1437 1438 1438 1437